Weather Roundup
Issued by NWS

Home | Current Version | Previous Version | Graphics & Text | Print | Product List | Glossary Off
Versions: 1 2 3 4 5 6 7 8 9 10 11 12 13 14 15 16 17 18 19 20 21 22 23 24 25 26 27 28 29 30 31 32 33 34 35 36 37 38 39 40 41 42 43 44 45 46 47 48 49 50

643
NZUS93 KARX 210110
HRRWXR

CURRENT HOURLY OBSERVATIONS ACROSS
MUCH OF THE UPPER MISSISSIPPI VALLEY
NATIONAL WEATHER SERVICE LA CROSSE WI
800 PM CDT FRI OCT 20 2017


...SOUTHEAST MINNESOTA...


CITY           SKY/WX    TMP DP  RH WIND       PRES   REMARKS
ROCHESTER      PTCLDY    64  47  53 S18G28    29.82S
ROCHESTER/MAYO FAIR      66  44  44 SE16G28   29.82R
WINONA         CLOUDY    70  46  43 S5        29.83S
AUSTIN         CLOUDY    64  48  55 S10G16    29.81S
ALBERT LEA     NOT AVBL
DODGE CENTER   CLOUDY    64  46  52 S18G25    29.80S
PRESTON        PTCLDY    63  44  50 S14G21    29.85S
OWATONNA       CLOUDY    66  48  52 S13G23    29.77S
FARIBAULT      CLOUDY    66  48  52 SE17      29.76S
$$

...ELSEWHERE IN MINNESOTA...


CITY           SKY/WX    TMP DP  RH WIND       PRES   REMARKS
MINNEAPOLIS    MOCLDY    69  47  45 S13G21    29.74R
INTNL FALLS    CLOUDY    69  47  45 S10       29.57R
DULUTH         CLOUDY    64  45  49 S12       29.72S
RED WING       MOCLDY    70  41  35 S10G17    29.77S
REDWOOD FALLS  CLEAR     69  52  54 S22       29.63R
MANKATO        PTCLDY    68  49  50 S14G24    29.72S
WORTHINGTON    CLEAR     68  56  65 S18G24    29.65F
FAIRMONT       CLEAR     66  51  58 S15       29.72S
$$

...SOUTHWEST WISCONSIN...


CITY           SKY/WX    TMP DP  RH WIND       PRES   REMARKS
LA CROSSE      PTCLDY    69  45  41 S10       29.85S
PRAIRIE DU CHI CLOUDY    70  40  33 SE7G17    29.89S
BOSCOBEL       PTCLDY    71  46  40 S8        29.91S
LONE ROCK      CLOUDY    67  47  48 SE9       29.94R
PLATTEVILLE    PTCLDY    63  49  59 SE10      29.96S
FORT MC COY    CLOUDY    67  48  49 SE8       29.88F
MAUSTON-NEW LI CLOUDY    64  46  53 SE3       29.91S
VIROQUA        FAIR      65  48  54 S13G20    29.90S
WIS DELLS      CLEAR     66  46  48 S16       29.94S
$$

...ELSEWHERE IN WISCONSIN...


CITY           SKY/WX    TMP DP  RH WIND       PRES   REMARKS
MILWAUKEE      MOCLDY    67  52  58 S10       30.01F
MADISON        CLOUDY    65  48  54 S9        29.97S
GREEN BAY      CLOUDY    62  49  62 SE5       29.96S
EAU CLAIRE     CLOUDY    68  44  42 S15       29.80S
BLACK RVR FLS  FAIR      65  44  46 S3        29.86F
MEDFORD        CLOUDY    62  44  51 S13G20    29.88S
WAUSAU         PTCLDY    64  44  48 S9        29.90S
WIS RAPIDS     CLOUDY    64  45  49 S6        29.92F
MARSHFIELD     PTCLDY    62  44  51 S10       29.89S
RICE LAKE      PTCLDY    65  46  48 SE10      29.80S
$$

...NORTHEAST IOWA...


CITY           SKY/WX    TMP DP  RH WIND       PRES   REMARKS
WATERLOO       CLOUDY    66  46  48 S17G28    29.86S
DUBUQUE        PTCLDY    64  46  52 S10       29.95S
DECORAH        CLOUDY    64  46  52 S13G18    29.86S
MASON CITY     MOCLDY    64  49  57 S15G24    29.82S
CHARLES CITY   MOCLDY    66  46  48 S14G24    29.85S
OELWEIN        CLOUDY    66  46  48 S20       29.89S
$$

...ELSEWHERE IN IOWA...


CITY           SKY/WX    TMP DP  RH WIND       PRES   REMARKS
DES MOINES     CLOUDY    66  52  60 S16G25    29.84F
IOWA CITY      CLOUDY    68  47  46 SE9       29.94F
FORT DODGE     CLEAR     67  54  63 S16G25    29.78S
MARSHALLTOWN   CLOUDY    65  51  60 S13       29.86R
CEDAR RAPIDS   CLOUDY    67  46  47 S15G23    29.91S
$$

...NORTHERN ILLINOIS...


CITY           SKY/WX    TMP DP  RH WIND       PRES   REMARKS
CHICAGO-OHARE  CLOUDY    67  49  52 S12       30.04S
CHICAGO-MIDWAY CLOUDY    71  49  45 S10       30.05F
MOLINE         PTCLDY    67  44  43 S8        29.97R
ROCKFORD       CLOUDY    66  48  52 S13       30.01F
PEORIA         PTCLDY    68  46  45 S12       30.02S
$$

NOTE: "FAIR" INDICATES FEW OR NO CLOUDS BELOW 12,000 FEET WITH NO
SIGNIFICANT WEATHER AND/OR OBSTRUCTIONS TO VISIBILITY. WIND
SPEEDS ARE IN MILES-PER-HOUR.




USA.gov is the U.S. government's official web portal to all federal, state and local government web resources and services.